Location: Newark
(33.6439°N, 114.9881°W)
Time: 19:54:35
(UTC+00:00)

A-11 Canister half - Pass Details

Date: 27 August 2019
Orbit: 1527 x 1682 km, 47.3° (Epoch: 15 September)

Event Time Altitude Azimuth Distance (km) Brightness Sun altitude
Rises 18:43:27 0° 253° (WSW) 4,806 11.5 62.8°
Reaches altitude 10° 18:46:38 10° 258° (WSW) 3,842 11.1 63.2°
Maximum altitude 18:56:15 55° 335° (NNW) 1,939 10.1 64.1°
Drops below altitude 10° 19:06:08 10° 51° (NE) 3,941 11.2 65.0°
Sets 19:09:28 0° 57° (ENE) 4,936 11.6 65.2°
